Slupsk, Poland

6:36 PM CEST on July 28, 2016 (GMT +0200)
IPOMORSK9 | | Change Station

Elev 23 ft 54.59 °N, 16.86 °E | Updated 3 seconds ago

Scattered Clouds
Scattered Clouds
73.6 °F
Feels Like 73 °F
N
5.4
Wind Variable Wind from North
Gusts 8.3 mph

Today
High -- | Low -- °F
--% Chance of Precip.
Yesterday
High -- | Low -- °F
Precip. -- in
Pressure 29.95 in
Visibility 6.2 miles
Clouds Scattered Clouds 3500 ft
Heat Index 73 °F
Dew Point 68 °F
Humidity 84%
Rainfall 0.01 in
Snow Depth Not available.
4:56 AM 8:58 PM
Waning Crescent, 31% visible
METAR EPGD 281630Z 31008KT 270V330 9999 SCT035 23/14 Q1014
Pressure 29.95 in
Visibility 6.2 miles
Clouds Scattered Clouds 3500 ft
Heat Index 73 °F
Dew Point 68 °F
Humidity 84%
Rainfall 0.01 in
Snow Depth Not available.
4:56 AM 8:58 PM
Waning Crescent, 31% visible
METAR EPGD 281630Z 31008KT 270V330 9999 SCT035 23/14 Q1014

10-Day Weather Forecast

×

Almanac

Astronomy

Jul. 28, 2016 Rise Set
Actual Time
Civil Twilight
Nautical Twilight
Astronomical Twilight
Moon
Length of Visible Light
Length of Day
Tomorrow will be .
, % of the Moon is Illuminated

Today's Extremes

Country Highs Country Lows

Community

WunderPhotos

Upload Photos

1,928,147 photos uploaded!

WunderBlog® & News

Nearby

Air Quality

  Air Quality AQ Index Pollutant
Not available.

Snow Depth

Station Depth Elevation

Earthquake Activity

City Distance Mag. Time & Date
Minimum magnitude displayed is 2.5.

Coastal Water Temperatures

Place Temperature

Stations

Nearby Weather Stations

Station Location Temp. Windchill Dew Point Humidity Wind Precip. Elev Updated Type